GW3608 Weather Reports


time (UTC)temp
C
wind
direction
speed
KPH
gust
KPH
rain 1hr
cm
rain 24hr
cm
rain mn
cm
humidity
%
barometer
mb
20260505051536 15 214 0.0 4.8 0.00 0.00 0.00 54 1007.5
20260505041524 13 121 0.0 0.0 0.00 0.00 0.00 62 1007.4
20260505040025 14 121 0.0 3.2 0.00 0.00 0.00 58 1007.4
20260505034526 15 148 0.0 4.8 0.00 0.00 0.00 54 1007.3
20260505033028 15 120 0.0 6.4 0.00 0.00 0.00 53 1007.3
20260505031536 16 159 1.6 8.0 0.00 0.00 0.00 51 1007.2
20260505030023 16 155 1.6 9.7 0.00 0.00 0.00 50 1007.2
20260505024524 16 171 1.6 8.0 0.00 0.00 0.00 50 1007.3
20260505023028 16 165 1.6 6.4 0.00 0.00 0.00 48 1007.4
20260505021533 17 135 0.0 16.1 0.00 0.00 0.00 46 1007.4
20260505020036 17 126 0.0 8.0 0.00 0.00 0.00 45 1007.3
20260505014509 17 300 0.0 9.7 0.00 0.00 0.00 45 1007.4
20260505013008 17 132 1.6 8.0 0.00 0.00 0.00 45 1007.1
20260505011511 17 173 1.6 8.0 0.00 0.00 0.00 44 1007.1
20260505010019 17 162 0.0 6.4 0.00 0.00 0.00 44 1006.9
20260505004512 17 194 1.6 11.3 0.00 0.00 0.00 43 1006.8
20260505003011 17 164 0.0 8.0 0.00 0.00 0.00 43 1006.7
20260505001510 18 132 0.0 8.0 0.00 0.00 0.00 43 1006.5
20260505000014 18 151 1.6 8.0 0.00 0.00 0.00 41 1006.5
20260504234514 18 154 1.6 11.3 0.00 0.00 0.00 40 1006.5
20260504233013 19 174 0.0 9.7 0.00 0.00 0.00 39 1006.3
20260504231515 20 254 1.6 12.9 0.00 0.00 0.00 39 1006.2
20260504230013 20 209 3.2 11.3 0.00 0.00 0.00 37 1006.1
20260504224512 20 126 0.0 11.3 0.00 0.00 0.00 38 1006.2
20260504223017 20 240 1.6 19.3 0.00 0.00 0.00 37 1006.1
20260504221535 20 205 1.6 9.7 0.00 0.00 0.00 36 1006.0
20260504220018 21 153 1.6 8.0 0.00 0.00 0.00 36 1005.9
20260504214516 21 148 1.6 6.4 0.00 0.00 0.00 33 1005.9
20260504213019 21 213 1.6 11.3 0.00 0.00 0.00 36 1006.0
20260504211518 21 179 1.6 11.3 0.00 0.00 0.00 36 1006.2
20260504210022 21 304 0.0 12.9 0.00 0.00 0.00 38 1006.4
20260504204522 21 268 0.0 16.1 0.00 0.00 0.00 35 1006.5
20260504203018 21 194 4.8 20.9 0.00 0.00 0.00 33 1006.7
20260504200018 21 274 3.2 11.3 0.00 0.00 0.00 36 1007.0
20260504194529 20 238 0.0 16.1 0.00 0.00 0.00 38 1007.4
20260504193022 19 150 1.6 9.7 0.00 0.00 0.00 41 1007.4
20260504191532 20 178 1.6 17.7 0.00 0.00 0.00 38 1007.6
20260504190024 20 161 1.6 11.3 0.00 0.00 0.00 39 1007.6
20260504184522 20 242 3.2 12.9 0.00 0.00 0.00 39 1007.7
20260504183022 20 236 3.2 16.1 0.00 0.00 0.00 37 1007.8
20260504181524 19 202 0.0 8.0 0.00 0.00 0.00 41 1007.9
20260504180022 18 253 1.6 8.0 0.00 0.00 0.00 45 1008.1
20260504174524 19 178 4.8 12.9 0.00 0.00 0.00 39 1008.1
20260504173022 19 239 3.2 11.3 0.00 0.00 0.00 45 1008.5
20260504171530 18 73 3.2 11.3 0.00 0.00 0.00 42 1008.3
20260504081514 6 146 0.0 1.6 0.00 0.00 0.00 62 1010.9